DW9579 Weather Reports


time (UTC)temp
C
wind
direction
speed
KPH
gust
KPH
rain 1hr
cm
rain 24hr
cm
rain mn
cm
humidity
%
barometer
mb
20260507113002 12 265 9.7 14.5 0.00 0.00 0.00 79 1018.7
20260507111943 12 259 3.2 11.3 0.00 0.00 0.00 79 1018.7
20260507110944 12 273 1.6 12.9 0.00 0.00 0.00 79 1018.6
20260507105936 12 269 9.7 12.9 0.00 0.00 0.00 79 1018.7
20260507104933 12 270 0.0 6.4 0.00 0.00 0.00 79 1018.7
20260507103934 12 270 0.0 12.9 0.00 0.00 0.00 79 1018.8
20260507102951 12 286 6.4 12.9 0.00 0.00 0.00 79 1018.8
20260507101934 12 272 3.2 11.3 0.00 0.00 0.00 79 1018.8
20260507100932 12 270 3.2 11.3 0.00 0.00 0.00 79 1018.7
20260507095940 12 284 9.7 16.1 0.00 0.00 0.00 79 1018.8
20260507094938 12 281 3.2 12.9 0.00 0.00 0.00 79 1018.8
20260507093938 12 274 0.0 12.9 0.00 0.00 0.00 78 1018.9
20260507092940 12 274 0.0 8.0 0.00 0.00 0.00 79 1018.9
20260507091938 12 273 0.0 9.7 0.00 0.00 0.00 79 1018.9
20260507090941 12 273 0.0 6.4 0.00 0.00 0.00 79 1018.9
20260507085941 12 273 4.8 16.1 0.00 0.00 0.00 79 1019.0
20260507084942 12 271 6.4 14.5 0.00 0.00 0.00 79 1019.0
20260507083944 12 274 4.8 12.9 0.00 0.00 0.00 79 1019.0
20260507082944 12 279 8.0 14.5 0.00 0.00 0.00 79 1019.2
20260507081942 12 257 8.0 11.3 0.00 0.00 0.00 79 1019.2
20260507080940 12 257 1.6 9.7 0.00 0.00 0.00 79 1019.2
20260507075938 12 257 4.8 17.7 0.00 0.00 0.00 79 1019.3
20260507074936 12 249 11.3 17.7 0.00 0.00 0.00 79 1019.3
20260507073933 12 256 11.3 20.9 0.00 0.00 0.00 79 1019.3
20260507072951 12 228 8.0 11.3 0.00 0.00 0.00 79 1019.3
20260507072009 12 229 8.0 16.1 0.00 0.00 0.00 79 1019.3
20260507070951 12 265 0.0 0.0 0.00 0.00 0.00 79 1019.3
20260507065941 12 265 0.0 16.1 0.00 0.00 0.00 79 1019.3
20260507065000 12 259 12.9 22.5 0.00 0.00 0.00 79 1019.3
20260507063937 12 254 16.1 22.5 0.00 0.00 0.00 79 1019.2
20260507062940 12 259 14.5 19.3 0.00 0.00 0.00 80 1019.3
20260507061942 12 252 14.5 22.5 0.00 0.00 0.00 80 1019.3
20260507060943 12 268 16.1 27.4 0.00 0.00 0.00 79 1019.0
20260507055934 12 260 17.7 24.1 0.00 0.00 0.00 79 1018.9
20260507054934 12 263 17.7 27.4 0.00 0.00 0.00 79 1018.9
20260507053957 13 258 19.3 25.7 0.00 0.00 0.00 79 1018.9
20260507052955 13 255 19.3 25.7 0.00 0.00 0.00 79 1019.1
20260507052012 13 254 17.7 24.1 0.00 0.00 0.00 79 1019.1
20260507050949 13 246 14.5 22.5 0.00 0.00 0.00 78 1018.9
20260507045941 13 262 17.7 24.1 0.00 0.00 0.00 78 1018.9
20260507044942 13 257 17.7 24.1 0.00 0.00 0.00 78 1018.9
20260507043944 13 252 14.5 24.1 0.00 0.00 0.00 78 1018.9
20260507042943 13 267 17.7 24.1 0.00 0.00 0.00 78 1018.6
20260507041942 13 261 14.5 22.5 0.00 0.00 0.00 78 1018.6
20260507040939 14 257 16.1 19.3 0.00 0.00 0.00 77 1018.5
20260507035933 14 272 4.8 16.1 0.00 0.00 0.00 77 1018.4
20260507035011 14 272 1.6 12.9 0.00 0.00 0.00 77 1018.4
20260507033947 14 275 9.7 16.1 0.00 0.00 0.00 77 1018.3
20260507032945 15 269 4.8 11.3 0.00 0.00 0.00 77 1018.1
20260507031943 15 271 0.0 11.3 0.00 0.00 0.00 76 1018.1
20260507030949 14 290 1.6 11.3 0.00 0.00 0.00 76 1018.0
20260507025939 15 284 6.4 17.7 0.00 0.00 0.00 76 1017.9
20260507024938 14 290 12.9 25.7 0.00 0.00 0.00 76 1017.9
20260507023937 14 286 16.1 30.6 0.00 0.00 0.00 76 1017.8
20260507022935 15 285 19.3 33.8 0.00 0.00 0.00 76 1017.8
20260507021940 15 302 17.7 29.0 0.00 0.00 0.00 76 1017.8
20260507020943 15 293 17.7 27.4 0.00 0.00 0.00 75 1017.8
20260507015931 15 277 16.1 29.0 0.00 0.00 0.00 75 1017.8
20260507014954 15 280 17.7 32.2 0.00 0.00 0.00 75 1017.8
20260507013938 15 260 22.5 35.4 0.00 0.00 0.00 76 1017.7
20260507012937 16 269 22.5 32.2 0.00 0.00 0.00 76 1017.7
20260507011955 16 265 20.9 29.0 0.00 0.00 0.00 75 1017.7
20260507010932 16 277 17.7 27.4 0.00 0.00 0.00 74 1017.8
20260507005944 16 284 17.7 27.4 0.00 0.00 0.00 74 1017.8
20260507004945 16 286 20.9 27.4 0.00 0.00 0.00 74 1017.8
20260507003928 17 273 20.9 27.4 0.00 0.00 0.00 74 1017.7
20260507002949 17 274 16.1 29.0 0.00 0.00 0.00 74 1017.7
20260507001946 17 277 19.3 29.0 0.00 0.00 0.00 74 1017.7
20260507000949 17 273 19.3 25.7 0.00 0.00 0.00 74 1017.9
20260506235942 17 282 17.7 29.0 0.00 0.00 0.00 74 1017.8
20260506234940 17 277 17.7 27.4 0.00 0.00 0.00 74 1017.8
20260506233939 17 269 20.9 29.0 0.00 0.00 0.00 73 1017.9
20260506232958 17 269 19.3 29.0 0.00 0.00 0.00 74 1017.8
20260506231935 17 279 24.1 30.6 0.00 0.00 0.00 73 1017.8
20260506230940 17 259 22.5 30.6 0.00 0.00 0.00 73 1017.9
20260506225934 17 264 20.9 29.0 0.00 0.00 0.00 73 1018.1
20260506224932 17 265 24.1 29.0 0.00 0.00 0.00 73 1018.1
20260506223931 17 279 20.9 29.0 0.00 0.00 0.00 73 1018.4
20260506222934 17 273 20.9 30.6 0.00 0.00 0.00 72 1018.5
20260506221932 18 290 19.3 27.4 0.00 0.00 0.00 72 1018.5
20260506220931 18 273 20.9 29.0 0.00 0.00 0.00 72 1018.8
20260506215940 18 264 19.3 27.4 0.00 0.00 0.00 71 1018.9
20260506214938 18 275 17.7 25.7 0.00 0.00 0.00 69 1018.9
20260506213941 18 290 17.7 27.4 0.00 0.00 0.00 70 1018.9
20260506212942 18 268 17.7 25.7 0.00 0.00 0.00 69 1018.9
20260506211941 19 268 16.1 24.1 0.00 0.00 0.00 69 1018.9
20260506210938 19 273 14.5 22.5 0.00 0.00 0.00 69 1018.9
20260506205930 19 255 14.5 20.9 0.00 0.00 0.00 69 1019.2
20260506205011 19 265 11.3 17.7 0.00 0.00 0.00 69 1019.2
20260506203929 19 290 6.4 14.5 0.00 0.00 0.00 67 1019.3
20260506202931 19 278 6.4 16.1 0.00 0.00 0.00 67 1019.4
20260506201950 19 257 6.4 11.3 0.00 0.00 0.00 68 1019.4
20260506200933 18 261 4.8 12.9 0.00 0.00 0.00 69 1019.6
20260506195943 18 254 8.0 12.9 0.00 0.00 0.00 70 1019.8
20260506195002 18 244 6.4 12.9 0.00 0.00 0.00 70 1019.8
20260506193959 17 250 6.4 11.3 0.00 0.00 0.00 71 1019.9
20260506192936 17 254 6.4 11.3 0.00 0.00 0.00 71 1020.1
20260506191938 17 249 6.4 11.3 0.00 0.00 0.00 72 1020.1
20260506190939 17 254 8.0 14.5 0.00 0.00 0.00 72 1020.3
20260506185950 17 246 8.0 12.9 0.00 0.00 0.00 72 1020.2
20260506184947 17 232 9.7 14.5 0.00 0.00 0.00 72 1020.2
20260506183932 17 250 9.7 12.9 0.00 0.00 0.00 72 1020.4
20260506182932 17 242 9.7 12.9 0.00 0.00 0.00 72 1020.4
20260506181934 16 238 8.0 12.9 0.00 0.00 0.00 71 1020.4
20260506180931 16 229 8.0 11.3 0.00 0.00 0.00 72 1020.3
20260506175942 16 230 6.4 12.9 0.00 0.00 0.00 72 1020.3
20260506174944 16 230 6.4 11.3 0.00 0.00 0.00 72 1020.3
20260506173942 16 232 6.4 11.3 0.00 0.00 0.00 72 1020.3
20260506172940 16 201 6.4 11.3 0.00 0.00 0.00 72 1020.4
20260506171937 16 215 6.4 9.7 0.00 0.00 0.00 71 1020.4
20260506170943 16 204 3.2 9.7 0.00 0.00 0.00 72 1020.4
20260506170000 16 205 3.2 9.7 0.00 0.00 0.00 72 1020.4
20260506164936 16 198 8.0 11.3 0.00 0.00 0.00 72 1020.4
20260506163935 15 197 4.8 9.7 0.00 0.00 0.00 73 1020.4
20260506162933 15 196 4.8 9.7 0.00 0.00 0.00 73 1020.4
20260506161934 15 196 3.2 9.7 0.00 0.00 0.00 74 1020.4
20260506160934 15 167 1.6 6.4 0.00 0.00 0.00 74 1020.4
20260506155945 15 165 0.0 6.4 0.00 0.00 0.00 74 1020.4
20260506155006 14 159 0.0 6.4 0.00 0.00 0.00 75 1020.4
20260506153943 14 157 4.8 8.0 0.00 0.00 0.00 75 1020.4
20260506152945 14 295 0.0 6.4 0.00 0.00 0.00 75 1020.4
20260506151943 14 290 3.2 6.4 0.00 0.00 0.00 75 1020.4
20260506150942 14 290 0.0 6.4 0.00 0.00 0.00 75 1020.3
20260506150012 15 291 3.2 6.4 0.00 0.00 0.00 75 1020.3
20260506144948 14 291 0.0 0.0 0.00 0.00 0.00 75 1020.1
20260506143929 14 291 0.0 4.8 0.00 0.00 0.00 75 1020.1
20260506142929 14 291 0.0 6.4 0.00 0.00 0.00 75 1019.9
20260506141931 13 291 1.6 6.4 0.00 0.00 0.00 75 1019.9
20260506140929 13 291 0.0 6.4 0.00 0.00 0.00 76 1019.8
20260506135939 13 291 0.0 6.4 0.00 0.00 0.00 76 1019.6
20260506134940 13 291 0.0 8.0 0.00 0.00 0.00 76 1019.6
20260506133940 13 288 0.0 8.0 0.00 0.00 0.00 76 1019.5
20260506132938 13 293 6.4 11.3 0.00 0.00 0.00 76 1019.4
20260506131936 13 293 3.2 9.7 0.00 0.00 0.00 76 1019.4
20260506130941 13 298 3.2 8.0 0.00 0.00 0.00 75 1019.4
20260506125952 13 298 1.6 9.7 0.00 0.00 0.00 75 1019.3
20260506124928 13 301 4.8 9.7 0.00 0.00 0.00 75 1019.3
20260506123929 13 303 6.4 11.3 0.00 0.00 0.00 75 1019.2
20260506122930 13 305 4.8 11.3 0.00 0.00 0.00 75 1019.2
20260506121931 13 305 8.0 11.3 0.00 0.00 0.00 75 1019.2
20260506120950 13 300 1.6 9.7 0.00 0.00 0.00 75 1019.1
20260506115938 13 298 3.2 9.7 0.00 0.00 0.00 75 1019.0
20260506114957 13 298 4.8 11.3 0.00 0.00 0.00 75 1019.0
20260506113934 13 302 6.4 12.9 0.00 0.00 0.00 75 1018.9